User: anonymous   Login
Location: Unspecified
(0.0000°N, 0.0000°E)
Time: 09:40:34
(UTC+00:00)
Language:

MetOp-A - Orbit

View from above orbital plane
View from above orbital plane
View from above satellite
View from above satellite

Ground track
Ground track

The orbit data is extracted from the following two-line orbital elements,

1 29499U 06044A   20219.92696076 -.00000004 +00000-0 +17231-4 0  9999
2 29499 098.5184 264.9768 0001786 101.4299 074.8331 14.21503374715874
Epoch (UTC): 06 August 2020 22:14:49
Eccentricity: 0.0001786
inclination: 98.5184°
perigee height: 819 km
apogee height: 821 km
right ascension of ascending node: 264.9768°
argument of perigee: 101.4299°
revolutions per day: 14.21503374
mean anomaly at epoch: 74.8331°
orbit number at epoch: 71587

The dashed part of the orbit path shows where the satellite is in the earth's shadow,  

DLR